Time,TemperatureF,DewpointF,PressureIn,WindDirection,WindDirectionDegrees,WindSpeedMPH,WindSpeedGustMPH,Humidity,HourlyPrecipIn,Conditions,Clouds,dailyrainin,SoftwareType,DateUTC
2013-10-21 11:42:00,49.0,49.0,25.83,NW,309,0.0,1.0,100,0.00,,,0.00,,2013-10-21 18:42:00,
2013-10-21 11:52:00,49.0,49.0,25.83,NW,309,0.0,1.0,100,0.00,,,0.00,,2013-10-21 18:52:00,
2013-10-21 12:11:00,50.0,50.0,25.83,NW,309,1.0,3.0,100,0.00,,,0.00,,2013-10-21 19:11:00,
2013-10-21 12:21:00,50.0,50.0,25.83,NW,309,1.0,3.0,100,0.00,,,0.00,,2013-10-21 19:21:00,
2013-10-21 12:42:00,49.0,49.0,25.83,NW,310,0.0,2.0,100,0.00,,,0.00,,2013-10-21 19:42:00,
2013-10-21 12:52:00,51.0,51.0,25.83,NW,310,0.0,2.0,100,0.00,,,0.00,,2013-10-21 19:52:00,
2013-10-21 13:11:00,51.0,51.0,25.83,North,5,2.0,3.0,100,0.00,,,0.00,,2013-10-21 20:11:00,
2013-10-21 13:21:00,51.0,51.0,25.83,NNE,29,2.0,4.0,100,0.00,,,0.00,,2013-10-21 20:21:00,
2013-10-21 13:52:00,52.0,52.0,25.83,NW,311,3.0,7.0,100,0.00,,,0.00,,2013-10-21 20:52:00,
2013-10-21 14:03:00,52.0,52.0,25.83,NW,311,3.0,7.0,100,0.00,,,0.00,,2013-10-21 21:03:00,
2013-10-21 14:11:00,52.0,52.0,25.83,NW,311,3.0,7.0,100,0.00,,,0.00,,2013-10-21 21:11:00,
2013-10-21 14:22:00,52.0,52.0,25.83,NW,311,3.0,7.0,100,0.00,,,0.00,,2013-10-21 21:22:00,
2013-10-21 14:44:00,50.0,50.0,25.83,NNW,343,2.0,5.0,100,0.00,,,0.00,,2013-10-21 21:44:00,
2013-10-21 14:54:00,50.0,50.0,25.83,NNW,343,2.0,5.0,100,0.00,,,0.00,,2013-10-21 21:54:00,
2013-10-21 15:13:00,52.0,52.0,25.83,NW,311,1.0,3.0,99,0.00,,,0.00,,2013-10-21 22:13:00,
2013-10-21 15:23:00,52.0,52.0,25.83,NW,311,1.0,3.0,99,0.00,,,0.00,,2013-10-21 22:23:00,
2013-10-21 15:44:00,51.0,51.0,25.83,NNE,13,1.0,5.0,99,0.00,,,0.00,,2013-10-21 22:44:00,
2013-10-21 15:53:00,51.0,51.0,25.83,North,356,1.0,4.0,99,0.00,,,0.00,,2013-10-21 22:53:00,
2013-10-21 16:03:00,51.0,51.0,25.83,North,356,1.0,4.0,99,0.00,,,0.00,,2013-10-21 23:03:00,
2013-10-21 16:22:00,51.0,50.0,25.83,NW,316,2.0,6.0,98,0.00,,,0.00,,2013-10-21 23:22:00,
2013-10-21 16:34:00,51.0,50.0,25.83,NW,316,2.0,6.0,98,0.00,,,0.00,,2013-10-21 23:34:00,
2013-10-21 16:42:00,51.0,50.0,25.83,NW,316,2.0,6.0,98,0.00,,,0.00,,2013-10-21 23:42:00,
2013-10-21 16:52:00,50.0,49.0,25.83,WNW,294,2.0,8.0,98,0.00,,,0.00,,2013-10-21 23:52:00,
2013-10-21 17:12:00,50.0,50.0,25.83,NW,322,0.0,3.0,99,0.00,,,0.00,,2013-10-22 00:12:00,
2013-10-21 17:22:00,50.0,50.0,25.83,NW,317,3.0,5.0,99,0.00,,,0.00,,2013-10-22 00:22:00,
2013-10-21 17:32:00,50.0,50.0,25.83,NW,317,3.0,5.0,99,0.00,,,0.00,,2013-10-22 00:32:00,
2013-10-21 17:53:00,50.0,-99.9,25.83,North,-999,-999.0,1.0,-999,0.00,,,0.00,,2013-10-22 00:53:00,